Location: Plymouth
(43.7570°N, 71.6890°W)
Time: 00:41:46
(UTC-05:00)

Amateur Radio Satellites - All Passes

Search period start: 23 January 2018 00:11
Search period end: 24 January 2018 00:11
Location: Plymouth, 43.7570°N, 71.6890°W

Satellite Date Start Highest point End Downlink Frequencies (MHz)
Time Altitude Azimuth
ISS 23 Jan 00:12:42 00:15:31 26° 15° (NNE) 00:18:21 437.550
AO-91 23 Jan 00:15:40 00:19:02 20° 94° (E) 00:22:36 145.960
BUGSAT 1 23 Jan 00:17:56 00:21:29 25° 95° (E) 00:25:01 437.445
NANOSAT C BR1 23 Jan 00:17:59 00:22:13 63° 286° (WNW) 00:26:25 145.865
50 SAT 23 Jan 00:24:15 00:27:00 30° 71° (ENE) 00:29:46 437.505
SPROUT 23 Jan 00:26:37 00:29:45 20° 267° (W) 00:32:56 437.525
QB50P2 23 Jan 00:34:44 00:38:35 33° 291° (WNW) 00:42:26 145.880/145.840
UKube-1 23 Jan 00:38:05 00:42:02 37° 69° (ENE) 00:46:00 .
VELOX 1 23 Jan 00:46:34 00:50:02 23° 266° (W) 00:53:31 145.980
DX 1 23 Jan 00:54:22 00:58:41 88° 260° (W) 01:03:03 434.975-435.025
DUCHIFAT 1 23 Jan 01:00:53 01:04:27 26° 293° (WNW) 01:08:00 145.980
EO-79 23 Jan 01:05:27 01:08:30 19° 295° (WNW) 01:11:31 145.935-145.965
O/OREOS (USA 219) 23 Jan 01:05:57 01:09:25 22° 305° (NW) 01:12:55 437.305
YUBILEINY 23 Jan 01:08:45 01:13:54 16° 303° (WNW) 01:19:04 435.215
ITUPSAT 1 23 Jan 01:14:15 01:17:25 18° 61° (ENE) 01:20:37 437.325
MOZHAYETS 4 23 Jan 01:22:26 01:26:34 33° 68° (ENE) 01:30:43
nSIGHT-1 23 Jan 01:26:30 01:29:42 85° 207° (SSW) 01:32:52 .
AO-7 23 Jan 01:26:45 01:28:58 11° 85° (E) 01:31:11 .
Oscar 19 23 Jan 01:29:30 01:34:42 80° 104° (ESE) 01:39:50 437.125/150
Gurwin Techsat 1B 23 Jan 01:33:24 01:38:43 66° 102° (ESE) 01:43:59 435.225
CUBESAT XI-V 23 Jan 01:34:09 01:36:03 12° 60° (ENE) 01:37:57 437.345
ISS 23 Jan 01:49:00 01:52:17 79° 214° (SW) 01:55:33 437.550
BEESAT 23 Jan 01:50:51 01:55:14 38° 69° (ENE) 01:59:40 436.000
AO-91 23 Jan 01:51:14 01:55:36 49° 287° (WNW) 02:00:24 145.960
BUGSAT 1 23 Jan 01:53:05 01:56:49 30° 291° (WNW) 02:00:31 437.445
50 SAT 23 Jan 01:57:28 01:58:48 12° 267° (W) 02:00:08 437.505
UKube-1 23 Jan 02:14:55 02:18:09 21° 266° (W) 02:21:25 .
ITAMSAT 1 23 Jan 02:41:31 02:45:22 20° 93° (E) 02:49:11 435.822/435.867
ITUPSAT 1 23 Jan 02:50:04 02:54:47 58° 259° (W) 02:59:32 437.325
MOZHAYETS 4 23 Jan 02:59:46 03:03:43 27° 265° (W) 03:07:40
nSIGHT-1 23 Jan 03:04:29 03:05:22 11° 229° (SW) 03:06:15 .
CUBESAT XI-V 23 Jan 03:08:02 03:12:44 84° 256° (WSW) 03:17:26 437.345
Oscar 19 23 Jan 03:10:28 03:13:20 15° 302° (WNW) 03:16:11 437.125/150
Gurwin Techsat 1B 23 Jan 03:14:32 03:18:07 19° 300° (WNW) 03:21:43 435.225
AO-7 23 Jan 03:15:03 03:23:22 63° 104° (ESE) 03:31:36 .
DOVE 4 23 Jan 03:26:40 03:29:04 14° 91° (E) 03:31:30 437.250
ISS 23 Jan 03:27:39 03:28:14 10° 230° (SW) 03:28:49 437.550
BEESAT 23 Jan 03:29:14 03:33:06 24° 266° (W) 03:37:00 436.000
FALCONSAT 3 23 Jan 03:40:51 03:43:33 19° 170° (S) 03:46:14 435.103
SO-50 23 Jan 03:55:15 03:59:02 28° 114° (ESE) 04:02:52 436.795
KKS-1 23 Jan 04:10:32 04:14:55 69° 73° (ENE) 04:19:20 437.445
STARS 23 Jan 04:19:59 04:23:55 34° 69° (ENE) 04:27:54 437.465
ITAMSAT 1 23 Jan 04:20:04 04:25:07 53° 290° (WNW) 04:30:11 435.822/435.867
XW-2D 23 Jan 04:45:52 04:47:13 12° 90° (E) 04:48:33 145.860 - 145.880
XW-2B 23 Jan 05:02:30 05:05:05 18° 93° (E) 05:07:40 145.730 - 145.750
DOVE 4 23 Jan 05:02:44 05:07:03 59° 286° (WNW) 05:11:36 437.250
AO-7 23 Jan 05:08:25 05:15:39 34° 304° (NW) 05:22:51 .
M-CUBED/EXP-1 PRIME 23 Jan 05:11:51 05:15:11 74° 290° (WNW) 05:18:25 437.505
FALCONSAT 3 23 Jan 05:19:09 05:22:00 21° 185° (S) 05:24:52 435.103
STRAND 1 23 Jan 05:27:11 05:31:29 28° 65° (ENE) 05:35:48 437.568
CUTE 1.7 + AOD 2 23 Jan 05:27:21 05:28:03 10° 88° (E) 05:28:44 437.475
XW-2C 23 Jan 05:32:15 05:35:49 40° 98° (E) 05:39:21 145.795 - 145.815
LilacSat-2 23 Jan 05:33:11 05:36:51 45° 99° (E) 05:40:27 437.200
SO-50 23 Jan 05:35:11 05:39:21 37° 313° (NW) 05:43:36 436.795
KKS-1 23 Jan 05:50:20 05:51:57 12° 271° (W) 05:53:33 437.445
FO-29 23 Jan 05:52:15 05:57:33 27° 64° (ENE) 06:02:24 435.910
STARS 23 Jan 05:56:51 06:00:19 23° 266° (W) 06:03:49 437.465
KAITUO 1B 23 Jan 05:59:53 06:03:34 62° 102° (ESE) 06:07:11 145.475/437.950
CUBEBUG 2 23 Jan 06:02:50 06:06:20 20° 92° (E) 06:09:48 437.445
UWE-3 23 Jan 06:04:41 06:06:04 11° 87° (E) 06:07:25 435.000/436.395/437.385
XW-2F 23 Jan 06:06:01 06:09:46 81° 282° (WNW) 06:13:28 145.980 - 146.000
NUDT-PHONESAT 23 Jan 06:06:13 06:09:53 71° 102° (ESE) 06:13:31 437.300
CUTE-I 23 Jan 06:10:30 06:15:51 74° 103° (ESE) 06:21:10 437.470
XW-2D 23 Jan 06:18:02 06:21:41 50° 287° (WNW) 06:25:18 145.860 - 145.880
HO-68 23 Jan 06:24:10 06:31:04 48° 100° (E) 06:37:55 435.675
XW-2B 23 Jan 06:35:57 06:39:21 32° 289° (WNW) 06:42:42 145.730 - 145.750
RS-15 23 Jan 06:37:20 06:48:34 44° 109° (ESE) 06:59:40 29.354- 29.394
SEEDS 23 Jan 06:42:39 06:46:38 43° 98° (E) 06:50:35 437.485
Oscar 11 23 Jan 06:58:43 06:59:29 10° 88° (E) 07:00:15 .
FALCONSAT 3 23 Jan 06:58:56 07:00:22 12° 200° (SSW) 07:01:48 435.103
CUTE 1.7 + AOD 2 23 Jan 07:00:09 07:04:21 71° 286° (WNW) 07:08:31 437.475
STRAND 1 23 Jan 07:05:47 07:10:30 38° 262° (W) 07:15:16 437.568
XW-2C 23 Jan 07:07:24 07:09:39 15° 295° (WNW) 07:11:53 145.795 - 145.815
LilacSat-2 23 Jan 07:08:41 07:10:43 14° 296° (WNW) 07:12:44 437.200
XW-2A 23 Jan 07:20:42 07:23:50 36° 98° (E) 07:26:55 145.665 - 145.685
YUBILEINY 23 Jan 07:21:10 07:24:51 13° 53° (NE) 07:28:31 435.215
FO-29 23 Jan 07:35:49 07:42:24 54° 259° (W) 07:48:14 435.910
KAITUO 1B 23 Jan 07:36:20 07:36:59 10° 298° (WNW) 07:37:39 145.475/437.950
UWE-3 23 Jan 07:38:23 07:43:05 80° 284° (WNW) 07:47:40 435.000/436.395/437.385
CUBEBUG 2 23 Jan 07:38:35 07:43:09 47° 288° (WNW) 07:47:40 437.445
TIGRISAT 23 Jan 07:40:55 07:44:16 21° 64° (ENE) 07:47:41 435.000
AAUSAT CUBESAT 2 23 Jan 07:51:41 07:55:47 74° 284° (WNW) 07:59:52 437.432
CUTE-I 23 Jan 07:51:57 07:55:16 17° 301° (WNW) 07:58:36 437.470
O/OREOS (USA 219) 23 Jan 07:56:07 07:58:30 14° 49° (NE) 08:00:52 437.305
UNISAT 6 23 Jan 07:56:11 08:00:09 32° 68° (ENE) 08:04:12 437.425
ZACube-1 23 Jan 07:56:14 08:00:50 84° 103° (ESE) 08:05:18 437.345
AO-73 23 Jan 08:01:23 08:05:57 84° 101° (E) 08:10:23 145.935
HO-68 23 Jan 08:12:13 08:18:36 36° 298° (WNW) 08:24:58 435.675
SEEDS 23 Jan 08:19:11 08:21:59 18° 295° (WNW) 08:24:47 437.485
BEESAT 3 23 Jan 08:23:15 08:26:59 40° 118° (ESE) 08:30:45 437.485
PCSat 23 Jan 08:30:52 08:35:51 40° 112° (ESE) 08:40:53 145.827
Oscar 11 23 Jan 08:31:48 08:36:07 74° 285° (WNW) 08:40:24 .
RS-15 23 Jan 08:48:24 09:00:39 65° 312° (NW) 09:12:42 29.354- 29.394
XW-2A 23 Jan 08:54:29 08:56:11 13° 295° (WNW) 08:57:52 145.665 - 145.685
PRISM 23 Jan 08:55:40 08:59:09 28° 68° (ENE) 09:02:39 437.425
YUBILEINY 23 Jan 09:15:11 09:23:50 61° 77° (ENE) 09:32:23 435.215
TIGRISAT 23 Jan 09:16:25 09:20:38 42° 262° (W) 09:25:00 435.000
BEESAT 2 23 Jan 09:17:41 09:21:26 40° 118° (ESE) 09:25:15 435.950
UWE-3 23 Jan 09:18:13 09:18:41 10° 302° (WNW) 09:19:08 435.000/436.395/437.385
UNISAT 6 23 Jan 09:33:05 09:36:51 27° 266° (W) 09:40:43 437.425
O/OREOS (USA 219) 23 Jan 09:34:00 09:38:29 77° 248° (WSW) 09:42:57 437.305
ZACube-1 23 Jan 09:34:46 09:36:23 12° 300° (WNW) 09:37:59 437.345
NANOSAT C BR1 23 Jan 09:38:13 09:39:45 12° 60° (ENE) 09:41:16 145.865
DELFI C3 23 Jan 09:38:20 09:42:15 68° 284° (WNW) 09:46:09 145.870
AO-73 23 Jan 09:39:52 09:41:27 12° 300° (WNW) 09:43:02 145.935
AIST 2D 23 Jan 09:44:11 09:47:29 39° 73° (ENE) 09:50:48 435.315
Max Valier Satellite 23 Jan 09:44:16 09:47:59 85° 281° (W) 09:51:39 145.860
QB50P2 23 Jan 09:53:13 09:56:24 21° 65° (ENE) 09:59:37 145.880/145.840
EO-88 23 Jan 09:56:34 10:00:13 87° 102° (ESE) 10:03:50 145.990 - 145.960
BEESAT 3 23 Jan 10:01:25 10:04:39 23° 316° (NW) 10:07:53 437.485
PCSat 23 Jan 10:14:24 10:19:18 34° 311° (NW) 10:24:15 145.827
DUCHIFAT 1 23 Jan 10:18:02 10:21:31 26° 67° (ENE) 10:25:01 145.980
EO-79 23 Jan 10:22:16 10:26:09 37° 70° (ENE) 10:30:05 145.935-145.965
PRISM 23 Jan 10:31:03 10:34:23 24° 265° (W) 10:37:43 437.425
AO-85 23 Jan 10:40:21 10:44:01 37° 117° (ESE) 10:47:56 145.980
BEESAT 2 23 Jan 10:55:59 10:59:17 24° 316° (NW) 11:02:36 435.950
POLYITAN 1 23 Jan 10:57:36 11:01:51 89° 66° (ENE) 11:06:09 437.675
RS-15 23 Jan 11:05:44 11:16:05 30° 342° (NNW) 11:26:10 29.354- 29.394
LO-87 23 Jan 11:07:04 11:10:43 77° 102° (ESE) 11:14:20 145.935 - 145.965
BUGSAT 1 23 Jan 11:08:59 11:12:06 21° 65° (ENE) 11:15:14 437.445
ESTCUBE 1 23 Jan 11:10:16 11:14:43 59° 101° (E) 11:19:07 437.505/2401.250
Oscar 19 23 Jan 11:10:20 11:13:55 19° 61° (ENE) 11:17:30 437.125/150
NANOSAT C BR1 23 Jan 11:10:37 11:14:49 75° 258° (WSW) 11:19:05 145.865
YUBILEINY 23 Jan 11:12:48 11:20:02 31° 278° (W) 11:27:15 435.215
AO-91 23 Jan 11:16:18 11:17:46 12° 63° (ENE) 11:19:18 145.960
Gurwin Techsat 1B 23 Jan 11:18:19 11:21:46 18° 59° (ENE) 11:25:13 435.225
AIST 2D 23 Jan 11:19:11 11:20:50 13° 269° (W) 11:22:29 435.315
QB50P2 23 Jan 11:28:00 11:31:57 37° 262° (W) 11:35:56 145.880/145.840
DUCHIFAT 1 23 Jan 11:53:22 11:57:03 29° 264° (W) 12:00:47 145.980
EO-79 23 Jan 11:58:51 12:02:01 20° 267° (W) 12:05:13 145.935-145.965
SPROUT 23 Jan 12:09:12 12:13:29 61° 101° (E) 12:17:44 437.525
AO-85 23 Jan 12:21:05 12:24:31 26° 317° (NW) 12:28:11 145.980
SO-50 23 Jan 12:24:20 12:28:47 40° 48° (NE) 12:33:15 436.795
AO-7 23 Jan 12:25:28 12:31:43 24° 50° (NE) 12:37:58 .
VELOX 1 23 Jan 12:33:47 12:38:08 58° 101° (E) 12:42:29 145.980
DX 1 23 Jan 12:42:32 12:44:52 14° 91° (E) 12:47:11 434.975-435.025
BUGSAT 1 23 Jan 12:43:29 12:47:13 35° 263° (W) 12:51:03 437.445
Oscar 19 23 Jan 12:47:35 12:52:44 63° 258° (WSW) 12:57:55 437.125/150
ESTCUBE 1 23 Jan 12:48:22 12:51:02 16° 298° (WNW) 12:53:42 437.505/2401.250
AO-91 23 Jan 12:50:39 12:53:51 40° 262° (W) 12:57:14 145.960
Gurwin Techsat 1B 23 Jan 12:55:51 13:01:08 70° 258° (WSW) 13:06:28 435.225
50 SAT 23 Jan 13:08:52 13:11:11 19° 95° (E) 13:13:29 437.505
RS-15 23 Jan 13:23:25 13:33:33 30° 17° (NNE) 13:43:14 29.354- 29.394
SPROUT 23 Jan 13:46:33 13:48:52 14° 298° (WNW) 13:51:10 437.525
UKube-1 23 Jan 13:59:01 14:03:16 55° 101° (E) 14:07:29 .
ITAMSAT 1 23 Jan 14:00:26 14:05:08 36° 67° (ENE) 14:09:51 435.822/435.867
SO-50 23 Jan 14:05:03 14:09:06 29° 246° (WSW) 14:13:11 436.795
VELOX 1 23 Jan 14:11:32 14:14:07 15° 298° (WNW) 14:16:40 145.980
AO-7 23 Jan 14:15:05 14:23:27 89° 249° (WSW) 14:31:54 .
DX 1 23 Jan 14:17:07 14:21:23 56° 287° (WNW) 14:25:38 434.975-435.025
M-CUBED/EXP-1 PRIME 23 Jan 14:25:06 14:27:46 17° 60° (ENE) 14:30:22 437.505
DOVE 4 23 Jan 14:33:56 14:36:27 16° 64° (ENE) 14:38:58 437.250
50 SAT 23 Jan 14:40:25 14:42:48 20° 291° (WNW) 14:45:09 437.505
ITUPSAT 1 23 Jan 14:49:17 14:53:36 32° 96° (E) 14:57:52 437.325
MOZHAYETS 4 23 Jan 14:52:25 14:57:02 63° 101° (ESE) 15:01:35
NO-84 23 Jan 15:03:15 15:05:35 19° 131° (SE) 15:07:50 435.350 FM
CUBESAT XI-V 23 Jan 15:03:53 15:07:25 21° 93° (E) 15:10:56 437.345
BEESAT 23 Jan 15:26:37 15:31:27 76° 104° (ESE) 15:36:13 436.000
PCSat 23 Jan 15:35:51 15:37:22 11° 29° (NNE) 15:38:53 145.827
UKube-1 23 Jan 15:36:16 15:38:50 16° 298° (WNW) 15:41:23 .
RS-15 23 Jan 15:37:11 15:48:58 64° 48° (NE) 16:00:03 29.354- 29.394
ITAMSAT 1 23 Jan 15:40:08 15:44:37 30° 264° (W) 15:49:08 435.822/435.867
XW-2B 23 Jan 15:46:07 15:47:31 12° 63° (ENE) 15:48:57 145.730 - 145.750
CUTE-I 23 Jan 15:55:42 15:59:28 20° 61° (ENE) 16:03:14 437.470
M-CUBED/EXP-1 PRIME 23 Jan 15:57:43 16:01:52 49° 255° (WSW) 16:05:46 437.505
KKS-1 23 Jan 16:02:06 16:03:45 12° 89° (E) 16:05:23 437.445
DOVE 4 23 Jan 16:09:42 16:13:48 48° 261° (W) 16:17:50 437.250
AO-7 23 Jan 16:11:40 16:17:16 19° 270° (W) 16:22:55 .
XW-2C 23 Jan 16:14:40 16:17:49 24° 69° (ENE) 16:20:57 145.795 - 145.815
LilacSat-2 23 Jan 16:16:09 16:19:27 28° 70° (ENE) 16:22:46 437.200
ITUPSAT 1 23 Jan 16:27:08 16:31:21 31° 294° (WNW) 16:35:32 437.325
MOZHAYETS 4 23 Jan 16:30:56 16:33:40 16° 298° (WNW) 16:36:22
BEESAT 3 23 Jan 16:38:24 16:42:04 36° 49° (NE) 16:45:41 437.485
NO-84 23 Jan 16:39:37 16:42:34 41° 326° (NNW) 16:45:22 435.350 FM
CUBESAT XI-V 23 Jan 16:40:37 16:44:56 40° 290° (WNW) 16:49:13 437.345
KAITUO 1B 23 Jan 16:40:38 16:44:01 33° 71° (ENE) 16:47:26 145.475/437.950
NUDT-PHONESAT 23 Jan 16:45:55 16:49:21 36° 71° (ENE) 16:52:48 437.300
XW-2F 23 Jan 16:47:21 16:51:03 54° 74° (ENE) 16:54:46 145.980 - 146.000
HO-68 23 Jan 16:54:09 17:00:44 41° 63° (ENE) 17:07:18 435.675
XW-2D 23 Jan 16:59:36 17:03:27 87° 69° (ENE) 17:07:16 145.860 - 145.880
CUBEBUG 2 23 Jan 17:02:21 17:05:28 19° 63° (ENE) 17:08:40 437.445
UWE-3 23 Jan 17:03:13 17:04:41 11° 59° (ENE) 17:06:10 435.000/436.395/437.385
BEESAT 23 Jan 17:06:03 17:08:35 14° 301° (WNW) 17:11:06 436.000
PCSat 23 Jan 17:17:02 17:22:14 44° 52° (NE) 17:27:24 145.827
XW-2B 23 Jan 17:17:25 17:21:12 59° 260° (W) 17:24:59 145.730 - 145.750
AO-85 23 Jan 17:30:12 17:32:25 13° 32° (NNE) 17:34:42 145.980
BEESAT 2 23 Jan 17:33:45 17:37:32 37° 49° (NE) 17:41:15 435.950
CUTE-I 23 Jan 17:33:47 17:39:02 61° 259° (W) 17:44:18 437.470
SEEDS 23 Jan 17:35:13 17:39:02 35° 70° (ENE) 17:42:52 437.485
KKS-1 23 Jan 17:36:19 17:40:46 71° 287° (WNW) 17:45:12 437.445
STARS 23 Jan 17:43:27 17:47:49 55° 101° (E) 17:52:09 437.465
XW-2C 23 Jan 17:48:42 17:51:54 25° 265° (W) 17:55:06 145.795 - 145.815
RS-15 23 Jan 17:50:21 18:00:50 42° 252° (WSW) 18:10:52 29.354- 29.394
LilacSat-2 23 Jan 17:50:39 17:53:42 22° 266° (W) 17:56:47 437.200
CUTE 1.7 + AOD 2 23 Jan 17:53:22 17:57:38 88° 263° (W) 18:01:54 437.475
XW-2A 23 Jan 17:53:27 17:55:37 16° 67° (ENE) 17:57:47 145.665 - 145.685
Oscar 11 23 Jan 17:55:03 17:56:07 11° 60° (ENE) 17:57:12 .
nSIGHT-1 23 Jan 18:05:38 18:07:00 12° 132° (SE) 18:08:22 .
KAITUO 1B 23 Jan 18:15:31 18:18:05 17° 267° (W) 18:20:38 145.475/437.950
BEESAT 3 23 Jan 18:16:21 18:19:22 21° 247° (WSW) 18:22:20 437.485
NO-84 23 Jan 18:19:12 18:20:20 12° 346° (NNW) 18:21:28 435.350 FM
NUDT-PHONESAT 23 Jan 18:20:57 18:23:18 16° 268° (W) 18:25:40 437.300
XW-2F 23 Jan 18:24:14 18:25:28 11° 270° (W) 18:26:42 145.980 - 146.000
ISS 23 Jan 18:30:51 18:32:49 15° 133° (SE) 18:34:47 437.550
UWE-3 23 Jan 18:35:54 18:40:22 87° 252° (WSW) 18:45:00 435.000/436.395/437.385
CUBEBUG 2 23 Jan 18:37:25 18:41:41 48° 262° (W) 18:46:08 437.445
HO-68 23 Jan 18:41:43 18:48:24 42° 262° (W) 18:55:08 435.675
AAUSAT CUBESAT 2 23 Jan 18:42:19 18:46:26 82° 76° (ENE) 18:50:34 437.432
FO-29 23 Jan 18:44:56 18:47:55 15° 90° (E) 18:50:54 435.910
ZACube-1 23 Jan 18:52:30 18:56:58 75° 75° (ENE) 19:01:33 437.345
AO-73 23 Jan 18:57:18 19:01:45 74° 76° (ENE) 19:06:19 145.935
PCSat 23 Jan 19:00:47 19:05:26 30° 251° (WSW) 19:10:03 145.827
AO-85 23 Jan 19:09:00 19:13:51 55° 52° (NE) 19:18:58 145.980
SEEDS 23 Jan 19:11:34 19:14:47 21° 267° (W) 19:18:01 437.485
BEESAT 2 23 Jan 19:11:55 19:15:01 22° 247° (WSW) 19:18:06 435.950
STRAND 1 23 Jan 19:14:16 19:19:25 66° 102° (ESE) 19:24:31 437.568
STARS 23 Jan 19:20:57 19:23:42 16° 298° (WNW) 19:26:28 437.465
XW-2A 23 Jan 19:24:59 19:28:03 31° 263° (W) 19:31:08 145.665 - 145.685
Oscar 11 23 Jan 19:27:13 19:31:34 85° 257° (WSW) 19:35:58 .
nSIGHT-1 23 Jan 19:39:34 19:42:43 85° 329° (NNW) 19:45:53 .
NO-84 23 Jan 19:58:29 19:58:35 10° 8° (N) 19:58:43 435.350 FM
ISS 23 Jan 20:05:40 20:08:56 74° 331° (NNW) 20:12:12 437.550
Max Valier Satellite 23 Jan 20:23:39 20:27:15 47° 73° (ENE) 20:30:52 145.860
DELFI C3 23 Jan 20:24:05 20:27:59 76° 76° (ENE) 20:31:54 145.870
YUBILEINY 23 Jan 20:27:32 20:30:51 13° 72° (ENE) 20:34:09 435.215
FO-29 23 Jan 20:28:25 20:33:33 65° 287° (WNW) 20:38:47 435.910
ZACube-1 23 Jan 20:32:17 20:33:47 11° 273° (W) 20:35:17 437.345
EO-88 23 Jan 20:34:51 20:38:18 41° 73° (ENE) 20:41:46 145.990 - 145.960
AO-73 23 Jan 20:36:56 20:38:30 12° 272° (W) 20:40:05 145.935
AO-85 23 Jan 20:50:04 20:54:01 23° 248° (WSW) 20:58:07 145.980
STRAND 1 23 Jan 20:54:40 20:58:04 18° 300° (WNW) 21:01:26 437.568
TIGRISAT 23 Jan 21:06:12 21:10:36 37° 97° (E) 21:14:55 435.000
nSIGHT-1 23 Jan 21:16:35 21:19:13 23° 347° (NNW) 21:21:51 .
UNISAT 6 23 Jan 21:22:14 21:26:54 59° 101° (E) 21:31:31 437.425
NO-84 23 Jan 21:34:02 21:36:32 27° 30° (NNE) 21:39:03 435.350 FM
ISS 23 Jan 21:43:06 21:45:48 23° 349° (N) 21:48:30 437.550
LO-87 23 Jan 21:43:53 21:47:09 34° 71° (ENE) 21:50:26 145.935 - 145.965
Max Valier Satellite 23 Jan 21:59:42 22:01:20 12° 270° (W) 22:02:56 145.860
PRISM 23 Jan 22:09:54 22:13:43 37° 98° (E) 22:17:32 437.425
EO-88 23 Jan 22:10:17 22:12:08 13° 269° (W) 22:13:59 145.990 - 145.960
ESTCUBE 1 23 Jan 22:10:35 22:15:02 62° 74° (ENE) 22:19:31 437.505/2401.250
YUBILEINY 23 Jan 22:17:08 22:25:50 67° 93° (E) 22:34:32 435.215
AIST 2D 23 Jan 22:40:22 22:43:39 39° 98° (E) 22:46:55 435.315
POLYITAN 1 23 Jan 22:42:33 22:44:41 13° 90° (E) 22:46:49 437.675
TIGRISAT 23 Jan 22:43:13 22:47:04 25° 294° (WNW) 22:50:54 435.000
nSIGHT-1 23 Jan 22:53:39 22:56:07 20° 7° (N) 22:58:36 .
NANOSAT C BR1 23 Jan 22:54:32 22:57:12 16° 91° (E) 22:59:50 145.865
UNISAT 6 23 Jan 23:00:06 23:03:07 17° 298° (WNW) 23:06:08 437.425
SPROUT 23 Jan 23:03:14 23:07:22 53° 73° (ENE) 23:11:32 437.525
NO-84 23 Jan 23:11:09 23:13:38 27° 226° (SW) 23:16:10 435.350 FM
QB50P2 23 Jan 23:11:14 23:15:03 30° 96° (E) 23:18:50 145.880/145.840
LO-87 23 Jan 23:18:30 23:20:39 15° 268° (W) 23:22:50 145.935 - 145.965
ISS 23 Jan 23:20:24 23:23:02 22° 9° (N) 23:25:40 437.550
VELOX 1 23 Jan 23:31:50 23:36:09 60° 73° (ENE) 23:40:28 145.980
DUCHIFAT 1 23 Jan 23:35:15 23:39:14 37° 98° (E) 23:43:10 145.980
DX 1 23 Jan 23:39:24 23:41:59 16° 62° (ENE) 23:44:35 434.975-435.025
EO-79 23 Jan 23:40:37 23:44:51 57° 100° (E) 23:49:04 145.935-145.965
PRISM 23 Jan 23:45:47 23:48:44 20° 295° (WNW) 23:51:41 437.425
O/OREOS (USA 219) 23 Jan 23:47:17 23:51:47 83° 291° (WNW) 23:56:19 437.305
ESTCUBE 1 23 Jan 23:49:56 23:52:14 14° 270° (W) 23:54:33 437.505/2401.250
